Location: Limerick
(52.6650°N, 8.6230°W)
Time: 19:18:18
(UTC+01:00)

ISS - Pass Details

Date: 27 May 2017
Orbit: 402 x 408 km, 51.6° (Epoch: 29 May)

Event Time Altitude Azimuth Distance (km) Brightness Sun altitude
Rises 03:06:09 0° 281° (W) 2,333 -0.1 -13.2°
Reaches altitude 10° 03:08:24 10° 269° (W) 1,469 -1.2 -13.1°
Maximum altitude 03:11:16 28° 209° (SSW) 799 -2.9 -12.9°
Drops below altitude 10° 03:14:08 10° 148° (SSE) 1,459 -1.3 -12.7°
Sets 03:16:22 0° 136° (SE) 2,315 -0.2 -12.6°
